Location: Astronomy Club of Akron Observatory
(40.9700°N, 81.5606°W)
Time: 09:45:52
(UTC-04:00)

ATLAS 2AS CENTAUR R/B - Visible Passes

Search period start: 22 October 2014 00:00
Search period end: 01 November 2014 00:00
Orbit: 917 x 1296 km, 63.7° (Epoch: 19 October)

Date Brightness Start Highest point End Pass type
(mag) Time Alt. Az. Time Alt. Az. Time Alt. Az.
22 Oct 5.4 02:28:42 12° NNE 02:28:42 12° NNE 02:29:30 10° NNE visible
22 Oct 5.1 04:16:09 12° NNW 04:17:55 13° N 04:21:23 10° NNE visible
22 Oct 5.0 06:06:52 10° NNW 06:12:32 20° NNE 06:18:11 10° ENE visible
23 Oct 5.2 03:32:53 14° N 03:32:53 14° N 03:35:57 10° NNE visible
23 Oct 5.1 05:22:08 10° NNW 05:26:54 16° NNE 05:31:41 10° NE visible
23 Oct 4.2 07:12:47 10° NNW 07:20:21 41° NE 07:27:46 10° ESE visible
24 Oct 5.4 02:49:39 13° N 02:49:39 13° N 02:50:58 10° NNE visible
24 Oct 5.2 04:37:12 10° NNW 04:41:08 14° N 04:45:07 10° NE visible
24 Oct 4.6 06:28:10 10° NNW 06:35:08 31° NE 06:42:00 10° E visible
25 Oct 5.2 03:53:53 13° N 03:55:19 13° N 03:58:49 10° NNE visible
25 Oct 4.9 05:43:33 10° NNW 05:49:44 23° NNE 05:55:54 10° E visible
26 Oct 5.3 03:10:41 13° N 03:10:41 13° N 03:13:02 10° NNE visible
26 Oct 5.1 04:58:53 10° NNW 05:04:11 19° NNE 05:09:30 10° ENE visible
26 Oct 3.9 06:49:28 10° NNW 06:57:18 50° NE 07:04:57 10° ESE visible
27 Oct 5.5 02:27:33 11° NNE 02:27:33 11° NNE 02:27:49 10° NNE visible
27 Oct 5.2 04:15:00 12° NNW 04:18:30 15° NNE 04:22:56 10° NE visible
27 Oct 4.4 06:04:50 10° NNW 06:12:11 36° NE 06:19:24 10° ESE visible
28 Oct 5.2 03:31:54 13° N 03:32:42 14° N 03:36:27 10° NE visible
28 Oct 4.7 05:20:13 10° NNW 05:26:53 27° NE 05:33:29 10° E visible
28 Oct 3.2 07:10:54 10° NW 07:19:03 87° ENE 07:26:55 10° SSE visible
29 Oct 5.4 02:48:52 12° NNE 02:48:52 12° NNE 02:50:19 10° NNE visible
29 Oct 5.0 04:36:20 12° NNW 04:41:26 21° NNE 04:47:15 10° ENE visible
29 Oct 3.5 06:26:09 10° NNW 06:34:11 62° NE 06:41:59 10° SE visible
30 Oct 5.1 03:53:23 15° N 03:55:49 17° NNE 04:00:46 10° ENE visible
30 Oct 4.0 05:41:30 10° NNW 05:49:10 44° NE 05:56:40 10° ESE visible
30 Oct 5.0 21:23:36 10° SSW 21:23:38 10° SSW 21:23:38 10° SSW visible
31 Oct 5.3 03:10:31 14° NNE 03:10:31 14° NNE 03:14:13 10° NE visible
31 Oct 4.5 04:58:00 14° NNW 05:03:58 32° NE 05:10:58 10° E visible
31 Oct 3.1 06:47:41 10° NW 06:55:47 76° WSW 07:03:34 10° SSE visible
31 Oct 4.3 20:39:46 10° S 20:41:43 19° SSE 20:41:43 19° SSE visible
